Regional Weather Roundup
Issued by NWS

Home | Current Version | Previous Version | Graphics & Text | Print | Product List | Glossary On
Versions: 1 2 3 4 5 6 7 8 9 10 11 12 13 14 15 16 17 18 19 20 21 22 23 24 25 26 27 28 29 30 31 32 33 34 35 36 37 38 39 40 41 42 43 44 45 46 47 48 49 50
000
ASUS43 KMPX 240601
RWRMN
WEATHER ROUNDUP FOR MINNESOTA
NATIONAL WEATHER SERVICE TWIN CITIES/CHANHASSEN MN
1200 AM CST SAT FEB 24 2018


NOTE: "FAIR" INDICATES FEW OR NO CLOUDS BELOW 12,000 FEET WITH NO
SIGNIFICANT WEATHER AND/OR OBSTRUCTIONS TO VISIBILITY. N/A MEANS
CURRENT SKY AND/OR WEATHER CONDITIONS ARE NOT AVAILABLE.

MNZ060>063-068>070-240700-
   Twin Cities Metro

CITY           SKY/WX    TMP DP  RH WIND       PRES   REMARKS
TWIN CITIES    FAIR      17  14  88 NW3       30.28F
6HR MIN TEMP:  16; 6HR MAX TEMP:  27;

ST PAUL        FAIR      18  15  88 NW5       30.29F WCI  11
CRYSTAL        FAIR      13  10  88 NW7       30.27F WCI   3
BLAINE         FAIR      16  12  86 NW3       30.27S
LAKEVILLE      FAIR      12  12 100 CALM      30.27F
EDEN PRAIRIE   FAIR      15  11  83 N5        30.26F WCI   8
6HR MIN TEMP:  15; 6HR MAX TEMP:  24;

SOUTH ST PAUL  FAIR      14  12  91 CALM      30.28F FOG
LAKE ELMO      FOG       12  10  92 CALM      30.28S VSB 1/2
$$
MNZ001>005-007-008-013>017-022>024-027-028-240700-
   Northwest Minnesota

CITY           SKY/WX    TMP DP  RH WIND       PRES   REMARKS
BEMIDJI        FAIR       3   0  88 SW5       30.19S WCI  -6
HALLOCK        FAIR       1   0  92 S10       30.16F WCI -14
ROSEAU         FAIR       1  -2  85 S7        30.16F WCI -11
WARROAD        FAIR       5   1  85 SW9       30.16S WCI  -9
THIEF RVR FALL FAIR       4   0  83 SW13      30.20F WCI -13
CROOKSTON      FAIR       0  -2  92 S9        30.23S WCI -16
FOSSTON        FAIR      -4  -8  84 S6        30.21F WCI -16
DETROIT LAKES  FAIR       3   1  92 CALM      30.23F
MOORHEAD       FAIR      -4  -9  77 S8        30.25F WCI -19
PARK RAPIDS    FAIR       0  -5  79 SW3       30.20F
MAHNOMEN       FAIR       0  -3  87 S12       30.22F WCI -18
$$
MNZ006-009>011-018-025>026-240700-
   North Central Minnesota

CITY           SKY/WX    TMP DP  RH WIND       PRES   REMARKS
BAUDETTE       FAIR       3   0  87 SW3       30.16S
FLAG ISLAND    FAIR       5   1  85 S6        30.14S WCI  -6
INTL FALLS     FAIR       3   0  87 SW5       30.18R WCI  -6
6HR MIN TEMP:   2; 6HR MAX TEMP:  25;

WASKISH        FAIR       7   3  85 SW8       30.19S WCI  -6
LONGVILLE      FAIR       1   0  92 CALM      30.22F
GRAND RAPIDS   FAIR       8   4  83 CALM      30.22S
CRANE LAKE     FAIR       7   1  78 CALM      30.21R
ORR            FAIR       9   1  72 W5        30.16S WCI   0
COOK             N/A      5   1  85 W3        30.19R
WALKER         FAIR       7   3  84 W5        30.21S WCI  -2
$$
MNZ012-019>021-037-240700-
   Northeast Minnesota

CITY           SKY/WX    TMP DP  RH WIND       PRES   REMARKS
DULUTH         FAIR      21  12  68 NW8       30.18S WCI  11
6HR MIN TEMP:  20; 6HR MAX TEMP:  30;

ELY            FAIR      12   7  79 W7        30.17R WCI   2
HIBBING        FAIR       3   0  87 CALM      30.19R
EVELETH        FAIR       9   5  85 W3        30.19S
DULUTH HARBOR  FAIR      25  19  80 W10       30.24S WCI  15
TWO HARBORS    FAIR      21  18  86 W6        30.17S WCI  14
SILVER BAY     FAIR      23  19  86 CALM      30.17R
GRAND MARAIS     N/A     25  18  74 W5        30.18S WCI  19
G MARAIS ARPRT FAIR      18  12  79 W3        30.11F
$$
MNZ029>031-032-039>041-046>048-054>057-064-240700-
   West Central Minnesota

CITY           SKY/WX    TMP DP  RH WIND       PRES   REMARKS
FERGUS FALLS   FAIR       3   0  85 CALM      30.26F
WHEATON        CLOUDY   -11 -17  77 SE3       30.27F
MORRIS         HAZE     -11 -18  70 CALM      30.25F VSB 1/2
ALEXANDRIA     FAIR       1  -2  87 W3        30.23F FOG
ELBOW LAKE     FAIR      -6 -10  85 E3        30.26S
WADENA         FAIR       0  -2  92 CALM      30.23F
GLENWOOD       FAIR       3   1  92 W3        30.25S
APPLETON       HAZE      -9 -15  77 CALM      30.27F VSB 1/2
BENSON         CLOUDY    -8 -13  77 CALM      30.27F
ORTONVILLE     FOG       -2  -8  78 CALM      30.25F VSB<1/4
MADISON        CLOUDY     0  -2  92 CALM      30.26F FOG
WILLMAR        CLOUDY    -4  -8  84 CALM      30.27F VSB 3/4
$$
MNZ033>034-036-042>043-049>051-058-059-240700-
   Central Minnesota

CITY           SKY/WX    TMP DP  RH WIND       PRES   REMARKS
ST CLOUD       FAIR       6   5  95 CALM      30.26F
6HR MIN TEMP:   2; 6HR MAX TEMP:  23;

SAUK CENTRE    FAIR      -3  -6  88 CALM      30.25S
PAYNESVILLE    FAIR      -2  -3  92 CALM      30.26F FOG
AITKIN         FAIR      10   7  85 SW5       30.22F WCI   2
PINE RIVER     FAIR       1   0  92 CALM      30.26S
BRAINERD       FAIR       7   1  76 CALM      30.24F
STAPLES        FAIR      -2  -6  84 CALM      30.24S
LONG PRAIRIE   FAIR       0  -4  85 CALM      30.24F FOG
LITTLE FALLS   FAIR       3  -2  78 CALM      30.27S
LITCHFIELD     FAIR       7   5  92 N3        30.26F FOG
BUFFALO        FAIR      10   8  90 CALM      30.28F
MAPLE LAKE     FAIR       3   1  91 CALM      30.27F FOG
HUTCHINSON     FAIR       8   5  89 CALM      30.26F
$$
MNZ037-044-045-052-053-240700-
   East Central Minnesota

CITY           SKY/WX    TMP DP  RH WIND       PRES   REMARKS
PRINCETON      FAIR       7   3  85 CALM      30.26F FOG
CAMBRIDGE        N/A     12   7  79 CALM      30.27F
RUSH CITY      FAIR      14  11  89 W5        30.27R WCI   6
MOOSE LAKE     FAIR      18  12  79 SW3       30.22S
HINCKLEY       FAIR      18  18 100 W3        30.25S
CLOQUET        FAIR      19  12  73 W7        30.20S WCI  10
MCGREGOR       FAIR      16  10  79 SW3       30.22F
$$
MNZ071>073-080-081-089-090-097-098-240700-
   Southwest Minnesota

CITY           SKY/WX    TMP DP  RH WIND       PRES   REMARKS
MONTEVIDEO     CLOUDY     3   0  85 CALM      30.26F
GRANITE FALLS  FOG       -5  -9  81 CALM      30.28F VSB 1/2
CANBY          CLOUDY     5   2  88 CALM      30.26S
MARSHALL       FOG        7   4  87 SW5       30.25F VSB 1/4 WCI  -2
REDWOOD FALLS  CLOUDY     9   7  92 NW6       30.25F FOG     WCI  -1
OLIVIA         FOG        3   0  85 N6        30.25F VSB 1   WCI  -8
PIPESTONE      SNOW      10   9  92 CALM      30.20F VSB 1/4
WORTHINGTON    FOG       14  12  92 CALM      30.24F VSB 1/4
JACKSON        FOG       14  12  92 CALM      30.25S VSB 1/4
TRACY          FOG       12  10  93 CALM      30.24S VSB 1/4
SLAYTON        FOG       13  11  92 CALM      30.23S VSB 1/4
$$
MNZ065>067-074>077-082>085-091>093-240700-
   South Central Minnesota

CITY           SKY/WX    TMP DP  RH WIND       PRES   REMARKS
MANKATO        FOG       10   8  92 SW5       30.28R VSB 1/4 WCI   2
NEW ULM        CLOUDY     1  -2  85 CALM      30.27R FOG
ST JAMES       CLOUDY     3   1  92 CALM      30.28F FOG
FAIRMONT       FOG        8   6  92 SW3       30.28S VSB 1/4
GLENCOE        FAIR      11  10  92 CALM      30.26F
FARIBAULT      FOG       10   9  92 CALM      30.26F VSB 1/2
OWATONNA       FOG       12  10  92 CALM      30.26S VSB<1/4
WASECA         FOG        9   5  85 CALM      30.29R VSB 1/4
ALBERT LEA     FAIR      16  14  93 CALM      30.26S FOG
$$
MNZ078>079-086>088-094>096-240700-
   Southeast Minnesota

CITY           SKY/WX    TMP DP  RH WIND       PRES   REMARKS
ROCHESTER      FAIR      14  13  95 NW3       30.25R FOG
6HR MIN TEMP:  13; 6HR MAX TEMP:  18;

RED WING       FAIR      10   7  85 CALM      30.27F FOG
STANTON        FOG        6   2  86 CALM      30.25F VSB 1
DODGE CENTER   LGT SNOW  12  10  92 CALM      30.25R
WINONA         FAIR      18  16  93 CALM      30.28S FOG
AUSTIN         FAIR      10   9  92 CALM      30.27S FOG
PRESTON        FAIR      16  14  91 CALM      30.27S FOG
$$
ABBREVIATIONS USED IN REMARKS
   TC - TEMPERATURES IN CELSIUS
  WCI - WIND CHILL INDEX
   HX - HEAT INDEX
  VSB - VISIBILITY
$$



USA.gov is the U.S. government's official web portal to all federal, state and local government web resources and services.